Terminal Aerodrome Forecast
Issued by NWS State College, PA

Home | Current Version | Previous Version | Text Only | Print | Product List | Glossary On
Versions: 1 2 3 4 5 6 7 8 9 10 11 12 13 14 15 16 17 18 19 20 21 22 23 24 25 26 27 28 29 30 31 32 33
000
FTUS41 KCTP 172113 AAA
TAFIPT
TAF AMD
KIPT 172113Z 1721/1818 14005KT P6SM SCT050 BKN120
     FM180300 10005KT P6SM VCSH BKN035 OVC100
     FM180600 10003KT P6SM BKN015
     FM181600 13005KT P6SM VCSH BKN035=

USA.gov is the U.S. government's official web portal to all federal, state and local government web resources and services.